{"data":{"norad_id":68946,"epoch":"2026-09-19T23:21:54.205056Z","epoch_age_seconds":64800,"freshness":"FRESH","line1":"1 68946U 26098AD  26262.97354404  .00000500  00000+0  94565-4 0  9999","line2":"2 68946  51.9038 351.5291 0000426  91.3959 268.7052 14.79931856 21629","mean_motion":14.79931856,"eccentricity":4.26e-5,"inclination_deg":51.9038,"raan_deg":351.5291,"arg_perigee_deg":91.3959,"mean_anomaly_deg":268.7052,"bstar":9.4565e-5,"rev_number":2162,"period_min":97.301777386702,"perigee_km":629.24071349399,"apogee_km":629.83776750968,"semimajor_km":7007.6762405018,"source":"CELESTRAK","updated_at":"2026-09-20T09:00:24.584563Z"}}